FW0304 Weather Reports


Display with metric or nautical units.
time (UTC)temp
F
wind
direction
speed
MPH
gust
MPH
rain 1hr
in
rain 24hr
in
rain mn
in
humidity
%
barometer
mb
20260509161523 67 120 0.0 2.0 0.00 0.01 0.00 87 1013.8
20260509160029 67 36 0.0 2.0 0.00 0.01 0.00 89 1013.8
20260509154512 66 87 0.0 0.0 0.00 0.01 0.00 89 1014.0
20260509153029 66 87 0.0 2.0 0.00 0.01 0.00 88 1013.9
20260509150030 66 187 0.0 2.0 0.00 0.01 0.00 89 1013.6
20260509144530 65 99 0.0 2.0 0.00 0.01 0.00 92 1013.3
20260509143017 64 49 0.0 2.0 0.00 0.01 0.00 93 1013.4
20260509141524 64 48 0.0 2.0 0.00 0.01 0.00 93 1013.7
20260509140023 63 112 0.0 3.0 0.00 0.01 0.00 94 1013.6
20260509134544 62 117 0.0 2.0 0.00 0.02 0.00 94 1013.3
20260509133025 62 117 0.0 2.0 0.00 0.02 0.00 95 1013.2
20260509131516 62 157 0.0 1.0 0.00 0.02 0.00 95 1013.2
20260509130018 61 99 0.0 2.0 0.00 0.02 0.00 95 1013.0
20260509124522 61 96 0.0 2.0 0.00 0.02 0.00 95 1012.3
20260509123025 61 105 0.0 2.0 0.00 0.02 0.00 95 1012.5
20260509121539 61 102 0.0 2.0 0.00 0.02 0.00 95 1012.2
20260509120017 61 106 0.0 0.0 0.00 0.02 0.00 95 1012.5
20260509114518 61 106 0.0 0.0 0.00 0.02 0.00 95 1012.5
20260509113014 61 106 0.0 2.0 0.00 0.02 0.00 95 1012.2
20260509111510 61 106 0.0 0.0 0.00 0.02 0.00 95 1012.2
20260509110016 61 106 0.0 0.0 0.00 0.02 0.00 95 1012.1
20260509104535 61 106 0.0 2.0 0.00 0.02 0.00 95 1012.0
20260509103006 61 106 0.0 2.0 0.00 0.02 0.00 95 1011.8
20260509101509 61 106 0.0 2.0 0.00 0.02 0.00 94 1011.7
20260509100015 61 99 0.0 2.0 0.00 0.02 0.00 95 1011.4
20260509094529 61 119 0.0 2.0 0.00 0.02 0.00 94 1011.3
20260509093004 61 111 0.0 2.0 0.00 0.02 0.00 94 1011.2
20260509091506 61 85 0.0 2.0 0.00 0.02 0.00 94 1011.4
20260509090013 61 267 0.0 1.0 0.00 0.02 0.00 94 1011.3
20260509084517 61 267 0.0 1.0 0.00 0.02 0.00 94 1011.2
20260509083020 61 302 0.0 2.0 0.00 0.02 0.00 94 1011.9
20260509081506 61 302 0.0 1.0 0.00 0.02 0.00 94 1011.8
20260509080014 61 300 0.0 2.0 0.00 0.02 0.00 94 1012.0
20260509074512 61 335 0.0 2.0 0.00 0.02 0.00 93 1011.2
20260509073021 61 129 0.0 2.0 0.00 0.02 0.00 93 1010.6
20260509071522 61 99 0.0 2.0 0.00 0.02 0.00 93 1011.2
20260509070012 61 105 0.0 7.0 0.00 0.02 0.00 92 1012.3
20260509064513 61 204 0.0 2.0 0.00 0.02 0.00 91 1012.9
20260509063026 61 142 0.0 0.0 0.00 0.02 0.00 90 1013.1
20260509061525 61 95 0.0 0.0 0.00 0.02 0.00 90 1013.2
20260509060029 61 96 0.0 2.0 0.00 0.02 0.00 89 1013.3
20260509054511 60 103 0.0 2.0 0.00 0.02 0.00 90 1012.8
20260509053016 60 99 0.0 2.0 0.00 0.02 0.00 90 1012.6
20260509051517 60 111 0.0 0.0 0.00 0.02 0.00 91 1012.8
20260509050026 59 115 0.0 1.0 0.00 0.02 0.00 92 1012.4
20260509044509 59 89 0.0 1.0 0.01 0.02 0.02 92 1012.9
20260509043012 58 89 0.0 0.0 0.01 0.02 0.02 91 1013.0
20260509041521 58 89 0.0 0.0 0.01 0.02 0.02 91 1013.0
20260509040024 58 89 0.0 0.0 0.01 0.02 0.02 91 1013.3
20260509034527 59 89 0.0 0.0 0.00 0.01 0.01 90 1013.1
20260509033010 59 89 0.0 0.0 0.00 0.01 0.01 89 1012.8
20260509031505 60 89 0.0 0.0 0.00 0.01 0.01 89 1012.4
20260509030005 60 89 0.0 0.0 0.00 0.01 0.01 88 1012.5
20260509024506 61 89 0.0 0.0 0.00 0.01 0.01 88 1012.6
20260509023005 60 89 0.0 0.0 0.00 0.01 0.01 88 1012.8
20260509021533 60 89 0.0 0.0 0.00 0.01 0.01 87 1012.9
20260509020017 61 89 0.0 0.0 0.00 0.01 0.01 87 1012.9
20260509014512 61 89 0.0 0.0 0.00 0.01 0.01 86 1013.1
20260509013016 61 89 0.0 0.0 0.00 0.01 0.01 86 1012.7
20260509004516 64 89 0.0 2.0 0.00 0.01 0.01 80 1013.1
20260509003008 64 89 0.0 0.0 0.00 0.01 0.01 80 1012.9
20260509001510 64 89 0.0 0.0 0.00 0.01 0.01 78 1013.2
20260508233014 65 115 0.0 2.0 0.00 0.02 0.01 74 1013.0
20260508231510 66 126 1.0 3.0 0.00 0.02 0.01 73 1013.0
20260508230012 66 111 0.0 8.0 0.00 0.02 0.01 72 1013.0
20260508221510 66 73 0.0 2.0 0.00 0.02 0.01 71 1014.0
20260508220015 67 17 0.0 6.0 0.00 0.02 0.01 68 1014.2
20260508214524 67 36 0.0 7.0 0.00 0.02 0.01 69 1014.0
20260508213015 67 176 1.0 6.0 0.00 0.02 0.01 69 1014.1
20260508211532 66 120 1.0 3.0 0.00 0.02 0.01 69 1014.2
20260508210014 67 150 0.0 4.0 0.00 0.02 0.01 69 1014.6
20260508204513 67 128 1.0 3.0 0.00 0.02 0.01 64 1014.7
20260508203014 67 113 0.0 4.0 0.00 0.02 0.01 65 1014.7
20260508201516 68 326 0.0 3.0 0.00 0.02 0.01 64 1014.5
20260508200015 68 125 0.0 3.0 0.00 0.02 0.01 61 1014.5
20260508194526 69 30 1.0 4.0 0.00 0.02 0.01 61 1014.6
20260508193014 68 153 1.0 6.0 0.00 0.02 0.01 59 1014.7
20260508191523 69 101 1.0 3.0 0.00 0.02 0.01 57 1015.2
20260508190016 69 95 1.0 4.0 0.00 0.02 0.01 58 1015.2
20260508184518 69 117 1.0 3.0 0.00 0.02 0.01 57 1015.5
20260508183024 67 183 0.0 4.0 0.00 0.02 0.01 60 1015.6
20260508181516 68 140 1.0 4.0 0.00 0.02 0.01 58 1015.6
20260508180018 68 184 0.0 6.0 0.00 0.02 0.01 61 1016.0
20260508174516 68 100 1.0 2.0 0.00 0.02 0.01 59 1015.8
20260508173017 67 120 1.0 3.0 0.00 0.02 0.01 57 1016.2
20260508171518 68 150 1.0 4.0 0.00 0.02 0.01 56 1016.0
20260508170005 68 91 1.0 3.0 0.00 0.02 0.01 57 1016.6
20260508164512 68 306 0.0 3.0 0.00 0.02 0.01 59 1016.8
20260508163019 68 176 0.0 4.0 0.00 0.02 0.01 56 1016.7